El Salvador, El Salvador

9:51 PM CST on September 26, 2016 (GMT -0600)
El Salvador International

Weather History for MSLP - July, 2013

Change the Weather History Date:

Tuesday, July 30, 2013

  Actual Average Record
Temperature  
Mean Temperature 83 °F -  
Max Temperature 93 °F 89 °F 96 °F (2005)
Min Temperature 73 °F 71 °F 32 °F (2002)
Cooling Degree Days 18    
Growing Degree Days 33 (Base 50)    
Moisture  
Dew Point 71 °F    
Average Humidity 73    
Maximum Humidity 89    
Minimum Humidity 46    
Precipitation  
Precipitation 0.00 in - - ()
Sea Level Pressure  
Sea Level Pressure 29.93 in    
Wind  
Wind Speed 5 mph ()    
Max Wind Speed 12 mph    
Max Gust Speed -    
Visibility 6.2 miles    
Events      
Averages and records for this station are not official NWS values.
T = Trace of Precipitation, MM = Missing Value Source: Averaged Metar Reports

Daily Weather History Graph

Daily Weather History Graph

Search for Another Location

Airport or City:

Trip Planner

Search our weather history database for the weather conditions in past years. The results will help you decide how hot, cold, wet, or windy it might be!

Date:

Astronomy

Jul. 30, 2013 Rise Set
Actual Time 5:40 AM CST 6:24 PM CST
Civil Twilight 5:18 AM CST 6:46 PM CST
Nautical Twilight 4:51 AM CST 7:13 PM CST
Astronomical Twilight 4:24 AM CST 7:40 PM CST
Moon No Moon Rise 12:47 PM CST (7/30)
Length of Visible Light 13h 28m
Length of Day
12h 43m
Last Quarter, 40% of the Moon is Illuminated
Jul 30
Last Quarter
Aug 6
New
Aug 14
First Quarter
Aug 20
Full
Aug 28
Last Quarter

Hourly Weather History & Observations

Time (CST) Temp. Heat Index Dew Point Humidity Pressure Visibility Wind Dir Wind Speed Gust Speed Precip Events Conditions
12:50 AM 77.0 °F - 69.8 °F 78% 29.95 in - East 6.9 mph - N/A   Clear
1:50 AM 75.2 °F - 71.6 °F 89% 29.95 in - NE 6.9 mph - N/A   Clear
2:50 AM 75.2 °F - 69.8 °F 83% 29.92 in - East 4.6 mph - N/A   Clear
3:50 AM 75.2 °F - 69.8 °F 83% 29.92 in - ENE 4.6 mph - N/A   Clear
4:50 AM 73.4 °F - 69.8 °F 88% 29.92 in - NE 3.5 mph - N/A   Clear
5:50 AM 75.2 °F - 68.0 °F 78% 29.92 in - NNE 4.6 mph - N/A   Clear
6:50 AM 78.8 °F - 69.8 °F 74% 29.92 in - North 8.1 mph - N/A   Clear
7:50 AM 84.2 °F 88.4 °F 69.8 °F 62% 29.95 in - NNE 8.1 mph - N/A   Clear
8:50 AM 87.8 °F 91.4 °F 68.0 °F 52% 29.95 in - NE 6.9 mph - N/A   Clear
9:50 AM 89.6 °F 94.7 °F 69.8 °F 52% 29.95 in - NE 5.8 mph - N/A   Clear
10:50 AM 93.2 °F 98.8 °F 69.8 °F 46% 29.95 in - Variable 2.3 mph - N/A   Clear
11:50 AM 87.8 °F 95.6 °F 73.4 °F 62% 29.95 in 6.2 mi SSE 8.1 mph - N/A   Partly Cloudy
12:50 PM 89.6 °F 99.8 °F 75.2 °F 62% 29.95 in 6.2 mi SW 9.2 mph - N/A   Partly Cloudy
1:50 PM 89.6 °F 98.2 °F 73.4 °F 59% 29.92 in 6.2 mi SSW 8.1 mph - N/A   Partly Cloudy
2:50 PM 87.8 °F 97.6 °F 75.2 °F 66% 29.89 in 6.2 mi SW 8.1 mph - N/A   Partly Cloudy
3:50 PM 87.8 °F 95.6 °F 73.4 °F 62% 29.86 in 6.2 mi SSW 5.8 mph - N/A   Partly Cloudy
4:50 PM 86.0 °F 93.4 °F 73.4 °F 66% 29.89 in 6.2 mi Variable 2.3 mph - N/A   Partly Cloudy
5:50 PM 82.4 °F 86.3 °F 69.8 °F 66% 29.92 in 6.2 mi North 11.5 mph - N/A   Scattered Clouds
6:50 PM 77.0 °F - 71.6 °F 83% 29.92 in 6.2 mi NW 4.6 mph - N/A   Partly Cloudy
7:50 PM 75.2 °F - 71.6 °F 89% 29.92 in 6.2 mi Variable 1.2 mph - N/A   Partly Cloudy
8:50 PM 75.2 °F - 69.8 °F 83% 29.95 in 6.2 mi ENE 2.3 mph - N/A   Partly Cloudy
9:50 PM 75.2 °F - 71.6 °F 89% 29.98 in 6.2 mi Variable 2.3 mph - N/A   Partly Cloudy
10:50 PM 75.2 °F - 71.6 °F 89% 29.98 in 6.2 mi Variable 2.3 mph - N/A   Partly Cloudy
11:50 PM 75.2 °F - 69.8 °F 83% 29.95 in - Variable 2.3 mph - N/A   Clear